PY2ELM-13 Weather Reports


time (UTC)temp
C
wind
direction
speed
KPH
gust
KPH
rain 1hr
cm
rain 24hr
cm
rain mn
cm
humidity
%
barometer
mb
20260902191351 26 0.0 0.0 0.00 0.00 0.00 45 1026.1
20260902190351 26 0.0 0.0 0.00 0.00 0.00 46 1026.1
20260902185350 26 0.0 0.0 0.00 0.00 0.00 48 1026.1
20260902184351 26 0.0 0.0 0.00 0.00 0.00 45 1025.9
20260902183351 26 0.0 0.0 0.00 0.00 0.00 44 1025.9
20260902182350 26 0.0 0.0 0.00 0.00 0.00 45 1025.9
20260902181350 27 0.0 0.0 0.00 0.00 0.00 43 1025.8
20260902180351 27 0.0 0.0 0.00 0.00 0.00 42 1025.7
20260902175350 28 0.0 0.0 0.00 0.00 0.00 40 1025.5
20260902174351 35 0.0 0.0 0.00 0.00 0.00 30 1023.9
20260902173351 36 0.0 0.0 0.00 0.00 0.00 29 1023.6
20260902172351 37 0.0 0.0 0.00 0.00 0.00 29 1023.6
20260902171350 33 0.0 0.0 0.00 0.00 0.00 33 1024.4
20260902170350 35 0.0 0.0 0.00 0.00 0.00 31 1024.2
20260902165351 30 0.0 0.0 0.00 0.00 0.00 41 1025.5
20260902164350 25 0.0 0.0 0.00 0.00 0.00 49 1026.8
20260902163350 25 0.0 0.0 0.00 0.00 0.00 48 1027.1
20260902162351 25 0.0 0.0 0.00 0.00 0.00 51 1027.2
20260902161350 25 0.0 0.0 0.00 0.00 0.00 51 1027.4
20260902160351 24 0.0 0.0 0.00 0.00 0.00 53 1027.4
20260902155350 25 0.0 0.0 0.00 0.00 0.00 51 1027.5
20260902154350 24 0.0 0.0 0.00 0.00 0.00 52 1027.6
20260902153350 24 0.0 0.0 0.00 0.00 0.00 55 1027.7
20260902152351 24 0.0 0.0 0.00 0.00 0.00 55 1027.9
20260902151350 23 0.0 0.0 0.00 0.00 0.00 53 1028.0
20260902150350 23 0.0 0.0 0.00 0.00 0.00 52 1028.1
20260902145350 23 0.0 0.0 0.00 0.00 0.00 53 1028.2
20260902144350 23 0.0 0.0 0.00 0.00 0.00 52 1028.4
20260902143350 23 0.0 0.0 0.00 0.00 0.00 58 1028.5
20260902142350 23 0.0 0.0 0.00 0.00 0.00 52 1028.7
20260902141351 23 0.0 0.0 0.00 0.00 0.00 54 1028.8
20260902140350 22 0.0 0.0 0.00 0.00 0.00 51 1028.9
20260902135350 22 0.0 0.0 0.00 0.00 0.00 53 1029.1
20260902134350 22 0.0 0.0 0.00 0.00 0.00 57 1029.2
20260902133350 22 0.0 0.0 0.00 0.00 0.00 55 1029.4
20260902132350 22 0.0 0.0 0.00 0.00 0.00 54 1029.5
20260902131350 22 0.0 0.0 0.00 0.00 0.00 58 1029.6
20260902130350 21 0.0 0.0 0.00 0.00 0.00 56 1029.9
20260902125350 21 0.0 0.0 0.00 0.00 0.00 58 1030.0
20260902124350 21 0.0 0.0 0.00 0.00 0.00 58 1030.0
20260902123350 21 0.0 0.0 0.00 0.00 0.00 57 1030.0
20260902122350 21 0.0 0.0 0.00 0.00 0.00 57 1030.0
20260902121350 20 0.0 0.0 0.00 0.00 0.00 58 1030.0
20260902120350 20 0.0 0.0 0.00 0.00 0.00 58 1029.9
20260902115350 20 0.0 0.0 0.00 0.00 0.00 58 1030.0
20260902114350 20 0.0 0.0 0.00 0.00 0.00 58 1029.8
20260902113350 20 0.0 0.0 0.00 0.00 0.00 58 1029.9
20260902112350 20 0.0 0.0 0.00 0.00 0.00 59 1030.0
20260902111350 20 0.0 0.0 0.00 0.00 0.00 59 1030.0
20260902110350 19 0.0 0.0 0.00 0.00 0.00 59 1029.9
20260902105350 19 0.0 0.0 0.00 0.00 0.00 60 1029.8
20260902104350 19 0.0 0.0 0.00 0.00 0.00 59 1029.8
20260902103350 18 0.0 0.0 0.00 0.00 0.00 60 1029.6
20260902102350 18 0.0 0.0 0.00 0.00 0.00 59 1029.5
20260902101350 18 0.0 0.0 0.00 0.00 0.00 59 1029.5
20260902100350 18 0.0 0.0 0.00 0.00 0.00 60 1029.4
20260902095350 18 0.0 0.0 0.00 0.00 0.00 59 1029.3
20260902094350 18 0.0 0.0 0.00 0.00 0.00 60 1029.4
20260902093350 18 0.0 0.0 0.00 0.00 0.00 60 1029.1
20260902092350 19 0.0 0.0 0.00 0.00 0.00 59 1028.8
20260902091350 18 0.0 0.0 0.00 0.00 0.00 60 1028.8
20260902090350 18 0.0 0.0 0.00 0.00 0.00 60 1028.7
20260902085350 18 0.0 0.0 0.00 0.00 0.00 60 1028.6
20260902084350 18 0.0 0.0 0.00 0.00 0.00 60 1028.4
20260902083350 19 0.0 0.0 0.00 0.00 0.00 60 1028.2
20260902082350 19 0.0 0.0 0.00 0.00 0.00 60 1027.8
20260902081350 19 0.0 0.0 0.00 0.00 0.00 59 1027.8
20260902080350 19 0.0 0.0 0.00 0.00 0.00 59 1027.5
20260902075350 19 0.0 0.0 0.00 0.00 0.00 59 1027.4
20260902074350 19 0.0 0.0 0.00 0.00 0.00 59 1027.2
20260902073350 19 0.0 0.0 0.00 0.00 0.00 60 1027.1
20260902072350 20 0.0 0.0 0.00 0.00 0.00 60 1027.0
20260902071350 19 0.0 0.0 0.00 0.00 0.00 60 1027.1
20260902070350 19 0.0 0.0 0.00 0.00 0.00 60 1026.9
20260902065350 19 0.0 0.0 0.00 0.00 0.00 60 1026.8
20260902064350 20 0.0 0.0 0.00 0.00 0.00 60 1026.9
20260902063350 20 0.0 0.0 0.00 0.00 0.00 60 1026.9
20260902062350 20 0.0 0.0 0.00 0.00 0.00 60 1027.0
20260902061350 20 0.0 0.0 0.00 0.00 0.00 60 1027.0
20260902060350 20 0.0 0.0 0.00 0.00 0.00 61 1027.1
20260902055350 20 0.0 0.0 0.00 0.00 0.00 62 1027.2
20260902054350 20 0.0 0.0 0.00 0.00 0.00 62 1027.1
20260902053350 20 0.0 0.0 0.00 0.00 0.00 63 1027.0
20260902052350 20 0.0 0.0 0.00 0.00 0.00 64 1027.0
20260902051350 20 0.0 0.0 0.00 0.00 0.00 64 1026.8
20260902050350 21 0.0 0.0 0.00 0.00 0.00 64 1026.8
20260902045350 21 0.0 0.0 0.00 0.00 0.00 64 1026.6
20260902044350 21 0.0 0.0 0.00 0.00 0.00 64 1026.6
20260902043350 21 0.0 0.0 0.00 0.00 0.00 65 1026.6
20260902042350 21 0.0 0.0 0.00 0.00 0.00 65 1026.6
20260902041350 21 0.0 0.0 0.00 0.00 0.00 65 1026.8
20260902040350 21 0.0 0.0 0.00 0.00 0.00 66 1026.9
20260902035350 21 0.0 0.0 0.00 0.00 0.00 66 1026.8
20260902034350 21 0.0 0.0 0.00 0.00 0.00 67 1026.9
20260902033350 21 0.0 0.0 0.00 0.00 0.00 67 1026.8
20260902032350 21 0.0 0.0 0.00 0.00 0.00 66 1026.6
20260902031350 21 0.0 0.0 0.00 0.00 0.00 66 1026.7
20260902030350 21 0.0 0.0 0.00 0.00 0.00 66 1026.8
20260902025350 21 0.0 0.0 0.00 0.00 0.00 67 1026.7
20260902024350 21 0.0 0.0 0.00 0.00 0.00 68 1026.7
20260902023350 21 0.0 0.0 0.00 0.00 0.00 68 1026.7
20260902022350 21 0.0 0.0 0.00 0.00 0.00 69 1026.5
20260902021350 22 0.0 0.0 0.00 0.00 0.00 68 1026.5
20260902020350 22 0.0 0.0 0.00 0.00 0.00 68 1026.4
20260902015350 21 0.0 0.0 0.00 0.00 0.00 69 1026.1
20260902014350 21 0.0 0.0 0.00 0.00 0.00 69 1026.0
20260902013350 21 0.0 0.0 0.00 0.00 0.00 68 1026.0
20260902012350 21 0.0 0.0 0.00 0.00 0.00 68 1025.9
20260902011350 21 0.0 0.0 0.00 0.00 0.00 68 1025.6
20260902010350 22 0.0 0.0 0.00 0.00 0.00 69 1025.5
20260902005350 22 0.0 0.0 0.00 0.00 0.00 69 1025.4
20260902004350 22 0.0 0.0 0.00 0.00 0.00 69 1025.4
20260902003350 22 0.0 0.0 0.00 0.00 0.00 69 1025.5
20260902002350 21 0.0 0.0 0.00 0.00 0.00 69 1025.5
20260902001350 22 0.0 0.0 0.00 0.00 0.00 68 1025.3
20260902000352 22 0.0 0.0 0.00 0.00 0.00 68 1025.1
20260901235350 22 0.0 0.0 0.00 0.00 0.00 67 1025.0
20260901234350 22 0.0 0.0 0.00 0.00 0.00 68 1024.7
20260901233350 22 0.0 0.0 0.00 0.00 0.00 68 1024.6
20260901232350 22 0.0 0.0 0.00 0.00 0.00 68 1024.4
20260901231350 22 0.0 0.0 0.00 0.00 0.00 68 1024.1
20260901230350 22 0.0 0.0 0.00 0.00 0.00 69 1023.9
20260901225350 22 0.0 0.0 0.00 0.00 0.00 69 1023.7
20260901224350 22 0.0 0.0 0.00 0.00 0.00 69 1023.3
20260901223350 22 0.0 0.0 0.00 0.00 0.00 69 1023.2
20260901222350 22 0.0 0.0 0.00 0.00 0.00 70 1023.2
20260901221350 22 0.0 0.0 0.00 0.00 0.00 69 1023.1
20260901220350 22 0.0 0.0 0.00 0.00 0.00 69 1023.3
20260901215350 22 0.0 0.0 0.00 0.00 0.00 69 1023.3
20260901214350 22 0.0 0.0 0.00 0.00 0.00 69 1023.3
20260901213350 22 0.0 0.0 0.00 0.00 0.00 69 1023.0
20260901212350 22 0.0 0.0 0.00 0.00 0.00 69 1023.0
20260901211350 22 0.0 0.0 0.00 0.00 0.00 69 1023.0
20260901210350 23 0.0 0.0 0.00 0.00 0.00 69 1023.2
20260901205350 23 0.0 0.0 0.00 0.00 0.00 69 1023.1
20260901204350 23 0.0 0.0 0.00 0.00 0.00 69 1023.2
20260901203350 23 0.0 0.0 0.00 0.00 0.00 69 1023.1
20260901202350 23 0.0 0.0 0.00 0.00 0.00 69 1022.8
20260901201350 23 0.0 0.0 0.00 0.00 0.00 69 1022.6
20260901200350 23 0.0 0.0 0.00 0.00 0.00 69 1022.7
20260901195350 23 0.0 0.0 0.00 0.00 0.00 69 1022.5
20260901194350 23 0.0 0.0 0.00 0.00 0.00 69 1022.4
20260901193350 23 0.0 0.0 0.00 0.00 0.00 69 1022.4
20260901192350 23 0.0 0.0 0.00 0.00 0.00 69 1022.1